K9ABJ Weather Reports


time (UTC)temp
C
wind
direction
speed
KPH
gust
KPH
rain 1hr
cm
rain 24hr
cm
rain mn
cm
humidity
%
barometer
mb
20260502130457 5 130 8.0 16.1 0.00 0.00 0.00 68 1018.5
20260502123440 5 61 4.8 14.5 0.00 0.00 0.00 74 1018.6
20260502122937 3 63 8.0 12.9 0.00 0.00 0.00 74 1018.6
20260502122433 4 102 4.8 16.1 0.00 0.00 0.00 73 1018.6
20260502121932 4 66 8.0 11.3 0.00 0.00 0.00 77 1018.5
20260502121428 3 90 6.4 12.9 0.00 0.00 0.00 78 1018.7
20260502120926 3 65 4.8 16.1 0.00 0.00 0.00 79 1018.5
20260502120422 2 109 1.6 11.3 0.00 0.00 0.00 80 1018.9
20260502115919 3 81 16.1 16.1 0.00 0.00 0.00 81 1018.7
20260502115416 3 62 6.4 11.3 0.00 0.00 0.00 81 1018.6
20260502114912 3 60 9.7 9.7 0.00 0.00 0.00 83 1018.7
20260502114409 2 98 1.6 9.7 0.00 0.00 0.00 83 1018.7
20260502113906 2 86 6.4 11.3 0.00 0.00 0.00 84 1018.4
20260502113404 1 83 9.7 11.3 0.00 0.00 0.00 84 1018.5
20260502112902 1 100 3.2 11.3 0.00 0.00 0.00 85 1018.7
20260502112400 1 85 9.7 9.7 0.00 0.00 0.00 85 1018.6
20260502111857 1 89 8.0 11.3 0.00 0.00 0.00 86 1018.4
20260502111354 1 87 9.7 11.3 0.00 0.00 0.00 86 1018.5
20260502110851 0 110 4.8 8.0 0.00 0.00 0.00 86 1018.5
20260502110349 0 87 6.4 12.9 0.00 0.00 0.00 87 1018.4
20260502105846 0 102 4.8 9.7 0.00 0.00 0.00 87 1018.4
20260502105343 0 83 6.4 8.0 0.00 0.00 0.00 87 1018.1
20260502104841 0 100 6.4 8.0 0.00 0.00 0.00 87 1018.3
20260502104338 0 91 8.0 9.7 0.00 0.00 0.00 87 1018.1
20260502103835 0 97 6.4 9.7 0.00 0.00 0.00 87 1018.1
20260502103333 0 92 8.0 9.7 0.00 0.00 0.00 87 1018.1
20260502102830 0 91 9.7 9.7 0.00 0.00 0.00 87 1018.0
20260502102326 0 89 6.4 11.3 0.00 0.00 0.00 87 1018.1
20260502101824 0 85 6.4 11.3 0.00 0.00 0.00 87 1018.2
20260502101322 0 100 9.7 9.7 0.00 0.00 0.00 87 1018.1
20260502100820 0 98 9.7 11.3 0.00 0.00 0.00 86 1018.1
20260502100319 0 105 8.0 9.7 0.00 0.00 0.00 86 1018.2
20260502091253 0 84 8.0 11.3 0.00 0.00 0.00 86 1018.0
20260502090750 0 95 6.4 9.7 0.00 0.00 0.00 86 1018.0
20260502090247 0 89 9.7 9.7 0.00 0.00 0.00 85 1018.1
20260502071147 1 98 8.0 9.7 0.00 0.00 0.00 78 1017.7
20260502070646 1 89 8.0 9.7 0.00 0.00 0.00 77 1017.9
20260502070143 1 87 6.4 9.7 0.00 0.00 0.00 77 1017.6
20260502065641 1 99 4.8 11.3 0.00 0.00 0.00 76 1017.9
20260502065138 1 99 8.0 9.7 0.00 0.00 0.00 76 1018.0
20260502064637 1 99 4.8 8.0 0.00 0.00 0.00 75 1017.6
20260502064134 1 104 8.0 8.0 0.00 0.00 0.00 75 1017.9
20260502063632 1 87 6.4 11.3 0.00 0.00 0.00 74 1018.1
20260502063129 1 92 6.4 8.0 0.00 0.00 0.00 74 1018.0
20260502062626 1 92 6.4 8.0 0.00 0.00 0.00 73 1018.0
20260502062123 1 90 9.7 11.3 0.00 0.00 0.00 73 1018.0
20260502061622 2 70 4.8 12.9 0.00 0.00 0.00 72 1018.0
20260502061119 2 116 3.2 9.7 0.00 0.00 0.00 72 1018.0
20260502060619 2 96 8.0 11.3 0.00 0.00 0.00 72 1018.0
20260502060116 2 55 9.7 9.7 0.00 0.00 0.00 73 1018.2
20260502055614 2 90 4.8 8.0 0.00 0.00 0.00 73 1018.1
20260502055112 2 88 8.0 11.3 0.00 0.00 0.00 75 1018.1
20260502054611 2 91 8.0 11.3 0.00 0.00 0.00 74 1018.1
20260502054107 2 132 1.6 11.3 0.00 0.00 0.00 74 1017.9
20260502053604 2 97 6.4 9.7 0.00 0.00 0.00 74 1018.1
20260502053101 2 89 6.4 9.7 0.00 0.00 0.00 74 1017.9
20260502052600 2 63 8.0 12.9 0.00 0.00 0.00 74 1018.1
20260502052058 2 95 8.0 12.9 0.00 0.00 0.00 74 1017.9
20260502051556 2 90 6.4 8.0 0.00 0.00 0.00 74 1018.0
20260502051053 2 88 4.8 11.3 0.00 0.00 0.00 75 1017.9
20260502050549 2 354 3.2 9.7 0.00 0.00 0.00 78 1018.0
20260502050046 2 104 6.4 8.0 0.00 0.00 0.00 81 1017.9
20260502045543 1 73 8.0 11.3 0.00 0.00 0.00 85 1018.1
20260502045040 1 101 9.7 9.7 0.00 0.00 0.00 85 1018.2
20260502044536 1 86 9.7 11.3 0.00 0.00 0.00 85 1018.0
20260502044033 1 84 9.7 11.3 0.00 0.00 0.00 85 1018.1
20260502043531 1 75 8.0 11.3 0.00 0.00 0.00 85 1018.0
20260502043027 1 89 9.7 11.3 0.00 0.00 0.00 84 1017.7
20260502042522 1 88 8.0 8.0 0.00 0.00 0.00 84 1017.9
20260502042020 2 88 8.0 8.0 0.00 0.00 0.00 83 1018.1
20260502041518 2 101 11.3 11.3 0.00 0.00 0.00 83 1018.0
20260502041014 2 93 8.0 9.7 0.00 0.00 0.00 81 1017.9
20260502040511 2 91 8.0 9.7 0.00 0.00 0.00 80 1018.2
20260502040008 2 95 9.7 9.7 0.00 1.45 1.45 79 1017.9
20260502035503 2 97 9.7 9.7 0.00 1.45 1.45 79 1017.9
20260502035001 2 98 8.0 9.7 0.00 1.45 1.45 78 1017.9
20260502034459 2 98 9.7 11.3 0.00 1.45 1.45 78 1017.9
20260502033958 3 92 9.7 9.7 0.00 1.45 1.45 76 1017.7
20260502033455 3 94 9.7 11.3 0.00 1.45 1.45 75 1017.7
20260502032951 3 91 8.0 11.3 0.00 1.45 1.45 75 1017.6
20260502032448 3 97 9.7 11.3 0.00 1.45 1.45 74 1017.6
20260502031945 3 89 6.4 11.3 0.00 1.45 1.45 74 1017.4
20260502031443 3 93 11.3 12.9 0.00 1.45 1.45 74 1017.4
20260502030941 3 82 9.7 11.3 0.00 1.45 1.45 74 1017.2
20260502030439 3 89 8.0 11.3 0.00 1.45 1.45 73 1017.4
20260502025937 3 79 9.7 9.7 0.00 1.45 1.45 72 1017.5
20260502025433 3 75 8.0 9.7 0.00 1.45 1.45 72 1017.5
20260502024931 4 87 11.3 11.3 0.00 1.45 1.45 71 1017.5
20260502024430 4 87 9.7 12.9 0.00 1.45 1.45 71 1017.3
20260502023928 4 82 9.7 11.3 0.00 1.45 1.45 70 1017.3
20260502023425 4 93 8.0 9.7 0.00 1.45 1.45 69 1017.3
20260502022922 5 83 8.0 9.7 0.00 1.45 1.45 68 1017.1
20260502022418 5 107 0.0 11.3 0.00 1.45 1.45 67 1017.2
20260502021915 5 73 9.7 11.3 0.00 1.45 1.45 66 1017.1
20260502021412 5 94 6.4 12.9 0.00 1.45 1.45 65 1017.0
20260502020909 5 75 1.6 14.5 0.00 1.45 1.45 65 1017.0
20260502020408 5 73 4.8 11.3 0.00 1.45 1.45 64 1016.9
20260502015904 5 61 4.8 12.9 0.00 1.45 1.45 65 1017.0
20260502015401 5 92 6.4 12.9 0.00 1.45 1.45 65 1016.8
20260502014858 5 89 8.0 11.3 0.00 1.45 1.45 64 1016.8
20260502014355 5 84 8.0 12.9 0.00 1.45 1.45 64 1016.8
20260502013851 5 84 9.7 11.3 0.00 1.45 1.45 65 1016.5
20260502013347 5 88 6.4 9.7 0.00 1.45 1.45 64 1016.7
20260502012844 5 81 9.7 11.3 0.00 1.45 1.45 63 1016.6
20260502012342 6 88 8.0 9.7 0.00 1.45 1.45 61 1016.4
20260502011839 6 83 8.0 12.9 0.00 1.45 1.45 62 1016.3
20260502011335 6 95 8.0 12.9 0.00 1.45 1.45 61 1016.3
20260502010832 6 81 11.3 16.1 0.00 1.45 1.45 61 1016.5
20260502010329 6 44 3.2 8.0 0.00 1.45 1.45 59 1016.3
20260502005825 6 99 4.8 11.3 0.00 1.45 1.45 61 1016.1
20260502005324 6 93 4.8 9.7 0.00 1.45 1.45 59 1016.1
20260502004821 6 80 6.4 11.3 0.00 1.45 1.45 59 1016.2
20260502004316 6 89 4.8 12.9 0.00 1.45 1.45 59 1016.0
20260502003815 7 93 6.4 14.5 0.00 1.45 1.45 57 1015.9
20260502003311 7 16 1.6 11.3 0.00 1.45 1.45 57 1015.9
20260502002807 7 110 6.4 14.5 0.00 1.45 1.45 56 1015.7
20260502002306 7 91 0.0 14.5 0.00 1.45 1.45 55 1015.8
20260502001801 7 31 8.0 8.0 0.00 1.45 1.45 54 1015.9
20260502001300 7 68 4.8 11.3 0.00 1.45 1.45 54 1015.7
20260502000757 8 93 8.0 11.3 0.00 1.45 1.45 54 1015.9
20260502000255 8 154 3.2 9.7 0.00 1.45 1.45 53 1015.8
20260501235755 8 78 8.0 12.9 0.00 1.45 1.45 53 1015.7
20260501235252 8 56 6.4 14.5 0.00 1.45 1.45 53 1015.7
20260501234748 8 86 4.8 9.7 0.00 1.45 1.45 51 1015.5
20260501234245 8 123 4.8 11.3 0.00 1.45 1.45 50 1015.5
20260501233743 9 125 16.1 16.1 0.00 1.45 1.45 50 1015.7
20260501233241 10 187 9.7 14.5 0.00 1.45 1.45 50 1015.4
20260501232736 10 108 9.7 14.5 0.00 1.45 1.45 51 1015.4
20260501232233 10 288 8.0 16.1 0.00 1.45 1.45 50 1015.4
20260501231731 11 75 6.4 14.5 0.00 1.45 1.45 50 1015.2
20260501231229 11 71 8.0 17.7 0.00 1.45 1.45 49 1015.4
20260501230727 10 220 0.0 17.7 0.00 1.45 1.45 49 1015.2
20260501230225 11 80 0.0 11.3 0.00 1.45 1.45 50 1015.6
20260501225722 10 59 4.8 16.1 0.00 1.45 1.45 51 1015.3
20260501225220 10 68 8.0 11.3 0.00 1.45 1.45 51 1015.4
20260501224715 10 85 9.7 16.1 0.00 1.45 1.45 52 1015.5
20260501224213 10 266 8.0 12.9 0.00 1.45 1.45 52 1015.5
20260501223709 10 56 4.8 16.1 0.00 1.45 1.45 52 1015.5
20260501223206 10 127 8.0 9.7 0.00 1.45 1.45 51 1015.3
20260501222702 10 238 3.2 11.3 0.00 1.45 1.45 51 1015.1
20260501222159 10 100 6.4 11.3 0.00 1.45 1.45 50 1015.3
20260501221656 11 79 9.7 12.9 0.00 1.45 1.45 52 1015.2
20260501221153 10 223 1.6 24.1 0.00 1.45 1.45 49 1015.3
20260501220651 10 126 0.0 9.7 0.00 1.45 1.45 49 1015.3
20260501220148 10 330 0.0 14.5 0.00 1.45 1.45 48 1015.3
20260501215645 11 102 6.4 19.3 0.00 1.45 1.45 52 1015.2
20260501215140 11 144 1.6 16.1 0.00 1.45 1.45 52 1015.1
20260501214635 11 82 8.0 16.1 0.00 1.45 1.45 54 1015.1
20260501214130 11 116 4.8 11.3 0.00 1.45 1.45 55 1014.9
20260501213628 12 89 1.6 9.7 0.00 1.45 1.45 52 1015.3
20260501213124 11 96 4.8 14.5 0.00 1.45 1.45 55 1015.0
20260501212621 11 196 4.8 19.3 0.00 1.45 1.45 56 1014.9
20260501212117 10 131 11.3 19.3 0.00 1.45 1.45 57 1015.1
20260501211614 10 64 12.9 12.9 0.00 1.45 1.45 59 1014.7
20260501211112 10 155 11.3 11.3 0.00 1.45 1.45 63 1015.1
20260501210608 10 142 4.8 11.3 0.00 1.45 1.45 59 1015.0
20260501210104 10 99 6.4 19.3 0.00 1.45 1.45 59 1014.9
20260501205601 10 101 1.6 12.9 0.00 1.45 1.45 61 1014.9
20260501205059 10 69 8.0 16.1 0.00 1.45 1.45 61 1014.7
20260501204555 10 211 0.0 17.7 0.00 1.45 1.45 59 1015.0
20260501204051 10 107 3.2 12.9 0.00 1.45 1.45 60 1014.8
20260501203548 11 88 4.8 12.9 0.00 1.45 1.45 57 1015.0
20260501203046 10 85 11.3 19.3 0.00 1.45 1.45 58 1014.8
20260501202542 10 72 4.8 16.1 0.00 1.45 1.45 58 1014.7
20260501202039 10 76 0.0 12.9 0.00 1.45 1.45 59 1014.8
20260501201537 10 83 12.9 14.5 0.00 1.45 1.45 60 1014.8
20260501201033 10 121 3.2 11.3 0.00 1.45 1.45 60 1014.8
20260501200530 10 23 4.8 14.5 0.00 1.45 1.45 59 1014.9
20260501200027 11 76 8.0 12.9 0.00 1.45 1.45 61 1014.6
20260501195524 10 79 8.0 9.7 0.00 1.45 1.45 61 1014.7
20260501195020 10 80 8.0 17.7 0.00 1.45 1.45 61 1014.7
20260501194516 10 93 8.0 9.7 0.00 1.45 1.45 60 1014.8
20260501194011 10 85 4.8 9.7 0.00 1.45 1.45 61 1014.7
20260501193510 11 98 9.7 12.9 0.00 1.45 1.45 60 1014.6
20260501193008 10 94 9.7 12.9 0.00 1.45 1.45 61 1014.5
20260501192504 10 73 9.7 11.3 0.00 1.45 1.45 63 1014.8
20260501192002 10 93 6.4 12.9 0.00 1.45 1.45 60 1014.7
20260501191459 10 119 6.4 11.3 0.00 1.45 1.45 59 1014.9
20260501190956 11 83 4.8 12.9 0.00 1.45 1.45 60 1014.7
20260501190451 10 70 11.3 14.5 0.00 1.45 1.45 60 1014.6
20260501185947 11 47 3.2 12.9 0.00 1.45 1.45 60 1014.8
20260501185443 10 81 14.5 14.5 0.00 1.45 1.45 60 1014.7
20260501184939 10 74 8.0 11.3 0.00 1.45 1.45 60 1014.6
20260501184436 11 72 8.0 12.9 0.00 1.45 1.45 64 1014.4
20260501183930 11 69 8.0 12.9 0.00 1.45 1.45 62 1014.6
20260501183428 11 78 11.3 12.9 0.00 1.45 1.45 64 1014.4
20260501182924 10 82 9.7 11.3 0.00 1.45 1.45 63 1014.5
20260501182421 10 84 6.4 8.0 0.00 1.45 1.45 61 1014.6
20260501181918 10 46 4.8 12.9 0.00 1.45 1.45 63 1014.8
20260501181415 10 96 4.8 12.9 0.00 1.45 1.45 63 1014.4
20260501180912 11 102 3.2 14.5 0.00 1.45 1.45 61 1014.5
20260501180409 11 73 9.7 14.5 0.00 1.45 1.45 60 1014.4
20260501175905 10 99 6.4 16.1 0.00 1.45 1.45 63 1014.4
20260501175402 10 83 0.0 17.7 0.00 1.45 1.45 62 1014.5
20260501174859 12 102 11.3 14.5 0.00 1.45 1.45 58 1014.4
20260501174356 11 78 6.4 17.7 0.00 1.45 1.45 59 1014.3
20260501173854 12 88 6.4 12.9 0.00 1.45 1.45 57 1014.4
20260501173352 11 50 9.7 16.1 0.00 1.45 1.45 56 1014.3
20260501172847 10 275 4.8 16.1 0.00 1.45 1.45 58 1014.4
20260501172342 12 85 11.3 11.3 0.00 1.45 1.45 58 1014.3
20260501171838 11 115 4.8 9.7 0.00 1.45 1.45 63 1014.3
20260501171335 12 199 3.2 12.9 0.00 1.45 1.45 59 1014.5
20260501170832 12 91 8.0 14.5 0.00 1.45 1.45 63 1014.3
20260501170329 11 70 4.8 11.3 0.00 1.45 1.45 59 1014.4
20260501165826 10 125 6.4 11.3 0.00 1.45 1.45 61 1014.4
20260501165324 12 248 9.7 14.5 0.00 1.45 1.45 57 1014.3
20260501164821 11 39 9.7 12.9 0.00 1.45 1.45 65 1014.5
20260501164319 11 121 4.8 19.3 0.00 1.45 1.45 64 1014.7
20260501163814 11 75 9.7 11.3 0.00 1.45 1.45 63 1014.5
20260501163312 11 68 9.7 12.9 0.00 1.45 1.45 65 1014.5
20260501162808 10 44 11.3 16.1 0.00 1.45 1.45 68 1014.5
20260501162306 10 49 8.0 12.9 0.00 1.45 1.45 69 1014.7
20260501161801 9 318 9.7 22.5 0.00 1.45 1.45 67 1014.5
20260501161259 8 71 3.2 12.9 0.00 1.45 1.45 73 1014.7
20260501160755 10 78 9.7 16.1 0.00 1.45 1.45 69 1014.6
20260501160252 10 91 4.8 14.5 0.00 1.45 1.45 74 1014.3
20260501155750 8 90 8.0 16.1 0.00 1.45 1.45 74 1014.4
20260501155246 8 79 14.5 14.5 0.00 1.45 1.45 76 1014.2
20260501154743 8 92 11.3 12.9 0.00 1.45 1.45 76 1014.4
20260501154240 8 46 11.3 14.5 0.00 1.45 1.45 77 1014.4
20260501153738 8 46 4.8 12.9 0.00 1.45 1.45 80 1014.6
20260501153235 7 74 4.8 14.5 0.00 1.45 1.45 80 1014.3
20260501152731 8 29 11.3 16.1 0.00 1.45 1.45 82 1014.5
20260501152228 7 62 11.3 14.5 0.00 1.45 1.45 86 1014.4
20260501151726 6 78 11.3 12.9 0.00 1.45 1.45 88 1014.5
20260501151222 6 78 11.3 11.3 0.00 1.45 1.45 90 1014.3
20260501150718 6 81 8.0 17.7 0.00 1.45 1.45 92 1014.3
20260501150214 5 79 0.0 12.9 0.00 1.45 1.45 92 1014.6